Welcome to the New NWS' Forecast!
Most changes are behind the scenes, but click here for differences you might notice.

Regional Weather Roundup (RWR)

Issued by Gray - Portland, ME (GYX)

                            
000
ASUS41 KGYX 172210
RWRGYX
WEATHER ROUNDUP FOR MAINE AND NEW HAMPSHIRE
NATIONAL WEATHER SERVICE GRAY ME
600 PM EDT WED OCT 17 2018

MEZ002-005-006-010-012-015-018-020-021-024-026-027-029-172300-
MAINE
  
CITY           SKY/WX    TMP DP  RH WIND       PRES   REMARKS
PORTLAND       FAIR      47  41  80 SW9       29.74R                  
SANFORD        FAIR      45  40  82 W7        29.76R                  
BAR HARBOR     MOCLDY    43  41  93 NW3       29.68R                  
WISCASSET      CLOUDY    50  39  66 VRB7      29.73R                  
ROCKLAND       LGT RAIN  49  38  65 NW14G23   29.69R                  
FRYEBURG       FAIR      46  32  58 W5        29.74R                  
LEWISTONAUBURN MOCLDY    46  36  68 NW12G20   29.73R                  
AUGUSTA        FAIR      46  38  73 W8        29.71R                  
WATERVILLE     FAIR      45  38  76 W9        29.67R                  
BANGOR         MOCLDY    44  41  89 SW5       29.67R                  
GREENVILLE       N/A     38  33  82 NW17G29   29.62R                  
MILLINOCKET    MOCLDY    45  34  65 NW13G22   29.64R                  
HOULTON        CLOUDY    42  40  92 SW6       29.59R                  
PRESQUE ISLE   FAIR      41  34  76 SW6       29.58R                  
FRENCHVILLE    LGT RAIN  39  33  79 NW14G22   29.55R                  
CARIBOU        FAIR      41  34  76 W7        29.55R                  
$$

NHZ002-005-008-009-011-012-014-172300-
NEW HAMPSHIRE
  
CITY           SKY/WX    TMP DP  RH WIND       PRES   REMARKS
PORTSMOUTH     MOCLDY    47  43  86 SW9       29.76R                  
ROCHESTER      FAIR      45  42  89 CALM      29.76R                  
NASHUA         FAIR      47  42  83 W6        29.82R                  
MANCHESTER     FAIR      48  41  76 W5        29.79R                  
CONCORD        CLOUDY    47  40  76 W8        29.80R                  
LACONIA        HVY RAIN  43  39  86 NW8       29.78R                  
PLYMOUTH       MOCLDY    43  38  85 W3        29.76S                  
BERLIN         FAIR      40  34  79 W7        29.73R                  
WHITEFIELD     CLOUDY    43  32  65 W10       29.75R                  
JAFFREY        MOCLDY    45  40  82 W6        29.82R                  
KEENE          FAIR      46  37  71 VRB5      29.83R                  
LEBANON        MOCLDY    50  29  44 NW13G20   29.78R                  
MT WASHINGTON  SNOWSHWR  19  19 100 NW56G67     N/A  VSB 0   WCI  -5  
$$

VTZ005-007-008-172300-
VERMONT
  
CITY           SKY/WX    TMP DP  RH WIND       PRES   REMARKS
ST JOHNSBURY     N/A     43  33  68 MISG      29.76R                  
MONTPELIER     CLOUDY    38  35  89 VRB5      29.83R                  
BURLINGTON     MOCLDY    46  28  49 NW8       29.81R                  
$$

MAZ007-012-024-CTZ003-RIZ002-NYZ038-NYZ072-172300-
SOUTHERN NEW ENGLAND AND NY
  
CITY           SKY/WX    TMP DP  RH WIND       PRES   REMARKS
BOSTON         MOCLDY    54  38  54 W14G24    29.82R                  
WORCESTER      MOCLDY    44  41  89 W15       29.83R                  
NANTUCKET      FAIR      58  44  60 W21G28    29.81R                  
PROVIDENCE     MOCLDY    57  38  48 W13G23    29.84R                  
HARTFORD       FAIR      48  37  65 NW16G24   29.89R                  
ALBANY         FAIR      48  35  60 W16G23    29.91R                  
NEW YORK CITY  MOCLDY    59  40  49 NW18G29   29.91R                  
$$

ANZ081-ANZ082-ANZ150-NHZ014-MEZ023>029-172300-
COASTAL MARINE OBSERVATIONS
  
STATION/POSITION TIME  TEMP    WIND        PRES    WAVE
                       AIR SEA DIR/SP/G            HT/PER
                 (UTC) (F)     (DEG/KT/KT) (MB)    (FT/S)
MOUNT DESERT ROC 2200   54     230/ 24/ 27 1004.3R
MATINICUS ROCK   2100   54     230/ 23/ 26 1004.0S
ISLE OF SHOALS   2100   50     290/ 27/ 31 1007.3R
JEFFREYS LEDGE   2106      57                N/A     3/ 5
$$

.............KEY..............
   WCI - WIND CHILL
   TC  - TEMPERATURE IN CELSIUS
   VSB - VISIBILITY IN MILES
   HX  - HEAT INDEX
   FAIR- INDICATES FEW OR NO CLOUDS BELOW 12,000 FT, WITH NO 
         SIGNIFICANT WEATHER AND/OR OBSTRUCTIONS TO VISIBILITY.